Location: ?????? ??????
(44.3742°N, 135.2221°E)
Time: 14:28:25
(UTC+00:00)

Cosmos 44 - Pass Details

Date: 19 May 2025
Orbit: 588 x 763 km, 65.1° (Epoch: 20 June)

Event Time Altitude Azimuth Distance (km) Brightness Sun altitude
Rises 13:06:12 0° 319° (NW) 2,922 7.9 -21.0°
Reaches altitude 10° 13:08:31 10° 313° (NW) 2,036 6.7 -21.2°
Maximum altitude 13:12:52 43° 242° (WSW) 934 3.9 -21.6°
Enters shadow 13:13:46 38° 213° (SSW) 1,011 3.8 -21.6°
